Location: Corralito
(10.2667°N, 66.9500°W)
Time: 12:05:24
(UTC+00:00)

ARIANE 5 DEB (SYLDA) - Visible Passes

Search period start: 05 December 2023 00:00
Search period end: 15 December 2023 00:00
Orbit: 270 x 8604 km, 6.8° (Epoch: 04 December)

Date Brightness Start Highest point End Pass type
(mag) Time Alt. Az. Time Alt. Az. Time Alt. Az.
05 Dec 7.9 02:38:38 10° W 04:11:28 29° ESE 04:18:00 10° ESE visible
05 Dec 6.9 06:49:16 10° W 07:26:41 44° SSW 07:37:19 10° SE visible
06 Dec 8.4 00:00:53 10° W 00:46:07 77° S 01:28:24 37° ESE visible
06 Dec 7.5 03:43:11 10° W 05:01:58 48° SE 05:13:55 10° ESE visible
06 Dec 6.6 08:08:17 19° WSW 08:23:39 36° SSW 08:31:39 10° SE visible
06 Dec 8.0 21:32:59 10° W 21:53:20 81° S 23:00:30 10° E visible
07 Dec 8.3 00:58:44 10° W 01:53:58 74° S 02:20:06 52° SE visible
07 Dec 7.4 04:50:16 10° W 05:51:50 55° S 06:08:44 10° ESE visible
07 Dec 6.4 09:03:58 10° WSW 09:19:20 28° SSW 09:25:14 10° SE visible
07 Dec 8.2 22:27:45 10° W 22:54:39 80° S 00:04:14 10° E visible
08 Dec 8.2 01:57:31 10° W 03:00:35 69° SSW 03:41:23 10° ESE visible
08 Dec 7.2 05:59:27 10° W 06:48:45 49° SSW 07:02:35 10° ESE visible
08 Dec 6.1 10:05:08 10° WSW 10:13:57 22° SSW 10:18:08 10° SE visible
08 Dec 8.4 23:22:35 10° W 23:57:39 77° S 00:55:53 21° ESE visible
09 Dec 7.8 02:57:41 10° W 04:23:32 44° SE 04:36:20 10° ESE visible
09 Dec 6.9 07:08:35 10° WSW 07:45:04 43° SSW 07:55:35 10° SE visible
10 Dec 8.5 00:17:36 10° W 01:02:07 74° S 01:46:24 34° ESE visible
10 Dec 7.7 03:59:47 10° W 05:11:28 57° S 05:30:04 10° ESE visible
10 Dec 6.6 08:17:27 12° WSW 08:39:51 36° SSW 08:47:48 10° SE visible
10 Dec 7.9 21:47:47 10° W 22:07:37 79° S 23:13:54 10° E visible
11 Dec 8.3 01:13:06 10° W 02:07:05 70° S 02:58:50 10° ESE visible
11 Dec 7.6 05:04:10 10° W 06:04:14 54° SSW 06:22:44 10° ESE visible
11 Dec 6.3 09:17:11 10° WSW 09:33:21 31° SSW 09:39:19 10° SE visible
11 Dec 8.2 22:40:16 10° W 23:06:08 77° S 00:15:12 10° ESE visible
12 Dec 8.4 02:09:23 10° W 03:11:07 66° S 03:53:03 10° ESE visible
12 Dec 7.3 06:10:21 10° W 07:00:19 49° SSW 07:14:28 10° ESE visible
12 Dec 6.0 10:15:41 10° WSW 10:25:46 25° SSW 10:30:09 10° SE visible
12 Dec 8.4 23:32:45 10° W 00:06:07 74° S 01:10:29 14° ESE visible
13 Dec 8.0 03:06:53 10° W 04:12:57 62° S 04:45:54 10° ESE visible
13 Dec 7.0 07:16:28 10° WSW 07:54:33 44° SSW 08:05:23 10° ESE visible
14 Dec 8.5 00:25:21 10° W 01:07:28 71° S 02:09:34 10° ESE visible
14 Dec 7.9 04:06:04 10° W 05:12:03 58° S 05:37:34 10° ESE visible
14 Dec 6.7 08:20:04 10° WSW 08:47:13 39° SSW 08:55:32 10° SE visible
14 Dec 7.8 21:53:57 10° W 22:12:22 76° S 23:16:34 10° ESE visible
